Tracking 26180 objects as of 24-Sep-2022
HD Live streaming from Space Station
objects crossing your sky now

THOR ABLESTAR DEB

Track THOR ABLESTAR DEB now!
10-day predictions


NORAD ID: 2620
Int'l Code: 1963-049H
Perigee: 1,033.9 km
Apogee: 1,061.1 km
Inclination: 89.9 °
Period: 106.0 minutes
Semi major axis: 7418 km
RCS: 0.0132 m2 (small)
Launch date: December 5, 1963
Source: United States (US)
Launch site: AIR FORCE WESTERN TEST RANGE (AFWTR)

Note: This is SATELLITE DEBRIS
aabbcc
Your satellite tracking list
Your tracking list is empty




NASA's NSSDC Master Catalog

Two Line Element Set (TLE):
1 02620U 63049H   22267.48008285  .00000215  00000-0  27985-3 0  9998
2 02620  89.9028  84.9471 0018332 132.0429 281.2878 13.58709782905447
Source of the keplerian elements: AFSPC